Powrót do katalogu

KUIPER-00199

AktywnyŁącznośćVLEO
NORAD 67771·PAYLOAD·🇺🇸 United States

Wystrzelony Feb 12, 2026 z Guiana Space Centre

Loading…

Następne Przeloty (najbliższe 24 godziny)

TLE

ŚwieżeSource: CelesTrak SupGP

Epoka: Sep 14, 2026, 11:57 UTC

1 67771C 26030H   26257.49800926 -.01244000  00000+0 -51272-1 0  2576
2 67771  51.8845  28.4988 0011531  10.7542 131.6283 15.24706898    15

Śledź KUIPER-00199 w czasie rzeczywistym z AllMySat

Download on the App Store